Regional Weather Roundup
Issued by NWS

Home | Current Version | Previous Version | Text Only | Print | Product List | Glossary Off
Versions: 1 2 3 4 5 6 7 8 9 10 11 12 13 14 15 16 17 18 19 20 21 22 23 24 25 26 27 28 29 30 31 32 33 34 35 36 37 38 39 40 41 42 43 44 45 46 47 48 49 50

000
ASUS43 KBIS 200802
RWRND

NORTH DAKOTA REGIONAL WEATHER ROUNDUP
NATIONAL WEATHER SERVICE BISMARCK ND
300 AM CDT FRI OCT 20 2017

NOTE: "FAIR" INDICATES FEW OR NO CLOUDS BELOW 12,000 FEET WITH NO
SIGNIFICANT WEATHER AND/OR OBSTRUCTIONS TO VISIBILITY.


NDZ001>003-009>011-017-200900-
NORTHWEST NORTH DAKOTA

CITY           SKY/WX    TMP DP  RH WIND       PRES   REMARKS
WILLISTON      PTCLDY    42  33  70 N3        29.50F
MINOT          FAIR      50  36  58 SE6       29.54F
MINOT AFB      FAIR      40  33  76 S5        29.52F
$$

NDZ018>021-031>035-040>046-200900-
SOUTHWEST NORTH DAKOTA

CITY           SKY/WX    TMP DP  RH WIND       PRES   REMARKS
BISMARCK       CLEAR     43  37  79 NE10      29.58F
DICKINSON      CLEAR     46  32  58 S13       29.51F
GARRISON         N/A     44  36  73 E5        29.55F
HETTINGER ARPT CLEAR     50  30  46 VRB3      29.57F
$$

NDZ004>008-012>016-024-026-027-054-200900-
NORTHEAST NORTH DAKOTA

CITY           SKY/WX    TMP DP  RH WIND       PRES   REMARKS
GRAND FORKS    FAIR      48  41  76 S7        29.66F
GRND FRKS AFB  FAIR      44  39  83 S6        29.65F
DEVILS LAKE    FAIR      46  41  82 SE9       29.62F
$$

NDZ022-023-025-028>030-036>039-047>053-200900-
SOUTHEAST NORTH DAKOTA

CITY           SKY/WX    TMP DP  RH WIND       PRES   REMARKS
FARGO          FAIR      57  48  72 S14       29.68F
JAMESTOWN      FAIR      48  43  82 S12       29.63F
$$




USA.gov is the U.S. government's official web portal to all federal, state and local government web resources and services.